Location: Miles
(41.4492°N, 81.6087°W)
Time: 14:57:31
(UTC+00:00)

Vanguard 1 Rocket - Pass Details

Date: 13 September 2024
Orbit: 650 x 4218 km, 34.3° (Epoch: 07 October)

Event Time Altitude Azimuth Distance (km) Brightness Sun altitude
Rises 12:35:51 0° 269° (W) 6,896 11.3 16.1°
Reaches altitude 10° 12:39:49 10° 267° (W) 6,236 11.1 16.8°
Maximum altitude 13:02:14 70° 190° (S) 4,345 11.2 20.9°
Drops below altitude 10° 13:27:04 10° 113° (ESE) 6,783 13.8 25.3°
Sets 13:31:38 0° 111° (ESE) 7,491 13.4 26.1°
